AirNav   Air Wisconsin Up To $57,000 Bonus
 
 1068 users online  

6ND9 Skinningsrud Airport
Berthold, North Dakota, USA

GOING TO BERTHOLD?


FAA INFORMATION EFFECTIVE 01 DECEMBER 2022

Location

FAA Identifier: 6ND9
Lat/Long: 48-23-34.0570N 101-45-50.5840W
48-23.567617N 101-45.843067W
48.3927936,-101.7640511
(estimated)
Elevation: 2010 ft. / 613 m (estimated)
Variation: 11E (1985)
From city: 5 miles N of BERTHOLD, ND
Time zone: UTC -6 (UTC -5 during Daylight Saving Time)
Zip code: 58725

Airport Operations

Airport use: Private use. Permission required prior to landing
Activation date: 01/1980
Control tower: no
ARTCC: MINNEAPOLIS CENTER
FSS: GRAND FORKS FLIGHT SERVICE STATION
Attendance: UNATNDD
Wind indicator: yes
Segmented circle: no
Lights: FOR RWY LGTS PHONE 701-468-5934.

Nearby radio navigation aids

VOR radial/distance  VOR name  Freq  Var
MOTr280/20.6MINOT VOR/DME117.1013E

Airport Services

Airframe service: NONE
Powerplant service: NONE
Bottled oxygen: NONE
Bulk oxygen: NONE

Runway Information

Runway 11/29

Dimensions: 3100 x 75 ft. / 945 x 23 m
Surface: turf
Runway edge lights: low intensity
RUNWAY 11  RUNWAY 29
Traffic pattern: leftleft
Runway end identifier lights: nono

Airport Ownership and Management from official FAA records

Ownership: Privately-owned
Owner: OLIVER SKINNINGSRUD
BERTHOLD, ND 58718
Phone 701-468-5934
Manager: OLIVER SKINNINGSRUD
BERTHOLD, ND 58718
Phone 701-468-5934

Airport Operational Statistics

Aircraft based on the field: 2
Single engine airplanes: 2
    

Additional Remarks

FOR CD CTC MINNEAPOLIS ARTCC AT 651-463-5588.

Instrument Procedures

There are no published instrument procedures at 6ND9.

Some nearby airports with instrument procedures:

KMIB - Minot Air Force Base (16 nm E)
7K5 - Kenmare Municipal Airport (20 nm NW)
KMOT - Minot International Airport (21 nm SE)
KHBC - Mohall Municipal Airport (24 nm N)
08D - Stanley Municipal Airport (26 nm W)
 
Loc | Ops | Rwys | IFR | FBO | Links
Com | Nav | Svcs | Stats | Notes

Bismarck Aero Center
AirBoss

 
Area around 6ND9 (Skinningsrud Airport)
 
Road maps at: MapQuest Bing Google
 
Aerial photo
No photo
 
Sectional chart

 
Airport distance calculator
Flying to Skinningsrud Airport? Find the distance to fly.

From to 6ND9

Sunrise and sunset
Times for 03-Dec-2022
 Local
(UTC-6)
 Zulu
(UTC)
Morning civil twilight07:4513:45
Sunrise08:2114:21
Sunset16:5322:53
Evening civil twilight17:2923:29

Current date and time
Zulu (UTC)  04-Dec-2022 00:43:54
Local (UTC-6)  03-Dec-2022 18:43:54
 
METAR
KMIB 
17nm E 
032355Z 28008KT 10SM CLR M14/M18 A3004 RMK AO2A SLP223 T11371185 11102 21140 57015 $
KMOT 
22nm SE 
032354Z 22008KT 10SM CLR M13/M18 A3006 RMK AO2 SLP225 T11281178 11094 21128 56015
K08D 
26nm W 
040015Z AUTO 29006KT 10SM CLR M15/M18 A3004 RMK AO2
TAF
KMIB 
17nm E 
030300Z 0303/0407 29009KT 9999 FEW050 QNH3015INS BECMG 0310/0311 26009KT 9999 BKN050 620509 QNH3013INS BECMG 0315/0316 25010G15KT 9999 BKN030 OVC050 620309 QNH3004INS BECMG 0319/0320 24009KT 9999 FEW030 SCT080 QNH2998INS TXM09/0321Z TNM23/0307Z LAST NO AMDS AFT 0305 NEXT 0509
NOTAMs
Click for the latest NOTAMs
NOTAMs are issued by the DoD/FAA and will open in a separate window not controlled by AirNav.

 

 
 

Would you like to see your business listed on this page?

 If your business provides an interesting product or service to pilots, flight crews, aircraft, or users of the Skinningsrud Airport, you should consider listing it here.  To start the listing process, click on the button below
 
Add a business
 

Other Pages about Skinningsrud Airport

Update a link
 
Copyright © AirNav, LLC. All rights reserved. Privacy Policy  Contact